User: anonymous   Login
Location: Unspecified
(0.0000°N, 0.0000°E)
Time: 03:24:55
(UTC+00:00)
Language:

STARLINK-3982 - Orbit

View from above orbital plane
View from above orbital plane
View from above satellite
View from above satellite

Ground track
Ground track

The orbit is defined by the following mean orbital elements,

1 52614U          26145.37439787 +.00000000 +00000-0 +87082-3 0 00005
2 52614  53.2074 223.2424 0001059 302.8334  57.2575 15.52493816    03
Epoch (UTC): 25 May 2026 08:59:07
Eccentricity: 0.0001059
inclination: 53.2074°
perigee height: 409 km
apogee height: 410 km
right ascension of ascending node: 223.2424°
argument of perigee: 302.8334°
revolutions per day: 15.52493816
mean anomaly at epoch: 57.2575°

The dashed part of the orbit path shows where the satellite is in the earth's shadow,  

DLR